Flag for Germany Weather past 2 weeks in Leimen, Baden-Württemberg, Germany

Now
68 °F

Passing clouds.


Feels Like: 68 °F
Forecast: 46 / 71 °F
Wind: 7 mph from North

Location: Baden Wurttemberg - Neuostheim

Current Time: May 22, 2015 at 7:58:26 PM

Latest Report: May 22, 2015 at 7:20 PM


Visibility: N/A

Pressure: 30.18 "Hg

Humidity: 30%

Dew point: 36 °F

Location of LeimenLocation

Historic Weather in Leimen — Graph

°F

Leimen temperature yesterday

Maximum temperature yesterday: 64 °F (at 4:50 PM)
Minimum temperature yesterday: 43 °F (at 5:50 AM)
Average temperature yesterday: 57 °F

Past Weeks' High & Low Weather Summary

 TemperatureHumidityPressure
High86 °F (May 12, 3:50 PM)100% (May 15, 5:50 AM)30.33 "Hg (May 15, 5:50 AM)
Low41 °F (May 22, 5:20 AM)25% (May 18, 6:20 PM)29.71 "Hg (May 18, 6:50 PM)
Average64 °F50%30.07 "Hg
* Reported May 7 6:20 PM — May 22 6:20 PM, Leimen, Weather by CustomWeather, © 2015

Note: Actual official high and low records may vary slightly from our data, if they occured in-between our weather recording intervals... More about our weather records

Advertising

Leimen weather history for previous 24 hours

 ConditionsComfort  
Time TempWeatherWind HumidityBarometerVisibility
6:20 PM
Fri, May 22
68 °FPassing clouds.8 mph30%30.18 "HgN/A
5:50 PM68 °FPassing clouds.7 mph28%30.18 "HgN/A
5:20 PM70 °FPassing clouds.6 mph29%30.18 "HgN/A
4:50 PM68 °FPassing clouds.8 mph28%30.21 "HgN/A
4:20 PM68 °FPassing clouds.6 mph28%30.21 "HgN/A
3:50 PM68 °FPassing clouds.6 mph30%30.21 "HgN/A
3:20 PM66 °FPassing clouds.5 mph30%30.24 "HgN/A
2:50 PM66 °FPassing clouds.6 mph32%30.24 "HgN/A
2:20 PM64 °FSunny.6 mph32%30.24 "Hg10 mi
1:50 PM68 °FPassing clouds.7 mph30%30.27 "HgN/A
1:20 PM66 °FPassing clouds.7 mph32%30.27 "HgN/A
12:50 PM64 °FPassing clouds.5 mph34%30.30 "HgN/A
12:20 PM63 °FSunny.6 mph34%30.30 "Hg10 mi
11:50 AM63 °FPassing clouds.6 mph32%30.30 "HgN/A
11:20 AM64 °FSunny.2 mph34%30.30 "Hg10 mi
10:50 AM61 °FSunny.3 mph39%30.33 "Hg10 mi
10:20 AM59 °FSunny.2 mph45%30.33 "Hg10 mi
9:50 AM59 °FSunny.No wind55%30.33 "Hg10 mi
9:20 AM55 °FSunny.3 mph63%30.33 "Hg10 mi
8:50 AM54 °FSunny.2 mph63%30.33 "Hg10 mi
8:20 AM52 °FSunny.2 mph62%30.33 "Hg10 mi
7:50 AM52 °FSunny.1 mph72%30.33 "Hg10 mi
7:20 AM50 °FSunny.1 mph71%30.33 "Hg10 mi
6:50 AM46 °FSunny.2 mph87%30.33 "Hg10 mi
6:20 AM45 °FClear.1 mph81%30.33 "Hg10 mi
5:50 AM41 °FClear.No wind87%30.33 "Hg10 mi
5:20 AM41 °FClear.No wind87%30.33 "Hg10 mi
8:50 PM
Thu, May 21
59 °FPassing clouds.6 mph36%30.30 "HgN/A
8:20 PM61 °FPassing clouds.8 mph31%30.27 "HgN/A
7:50 PM63 °FPassing clouds.12 mph30%30.27 "HgN/A
7:20 PM63 °FPassing clouds.10 mph32%30.27 "HgN/A
Weather by CustomWeather, © 2015

See weather overviewHow to use our weather pages